DECAYED
Showing default

HYDRA-T, 62692 (Decayed)

Orbit data source: Space-Track

HYDRA-T, 62692 was a Spanish payload satellite in LEO that was launched on Tue, 14 Jan 2025 UTC via an FALCON 9 launch vehicle from the Air Force Western Test Range (AFWTR). Payload-class satellites include a variety of spacecraft equipped with specific instruments for various scientific and technological missions. These include communications satellites like Starlink; space stations such as the ISS; scientific satellites like the Hubble; Earth observation satellites from companies like Planet Labs, Umbra, and HawkEye 360; GPS; miniature CubeSats for education and research; and military/defense satellites.

Not visible in the next 10 days
Identifier
62692, 2025-009CM
Orbit
Decayed
Country
Flag of ESES / SPN
Related business
Manufacturer
AMEA/HYDRA
Mission
Decayed Amateur Communications
Bus & Motor
POCKETQUBE 1.5P, Unknown motor
Mass
0.375 kg wet, 0.25 kg dry
Launch date (UTC)
2025-01-14 (2 years ago)
Launch vehicle
FALCON 9
Launch site
Air Force Western Test Range (AFWTR)
Object type
Payload
Rocket body
Debris
Shape & HBR
Box, 0.1 m
Radar Cross Section
0.005 m², Medium (>0.1 m² and < 1m²)

Expand to show TLE details & history
Last TLE update: 7 months ago

TLE from 7 months ago
0 HYDRA-T
1 62692U 25009CM  26028.19742799  .10589489  24473-5  20739-2 0  9999
2 62692  97.3569 119.0624 0010828 297.3030  62.7162 16.31546071 58115
Epoch: 2026-01-28T04:44Z
TLE epoch observation values (Epoch: 2026-01-28T04:44:17.778Z)
Latitude
-0.00001°
Longitude
-79.47961°
Altitude
188.376 km
Speed
7.795 km/s
True Right ascension
07h 56m 14s
True Declination
0° 00' 00"
Sunlit
Object was in full shadow at epoch
Visualization orbit readout
Latitude
Unknown
Longitude
Unknown
Altitude
Unknown
Speed
Unknown
Apparent Right ascension
Unknown
Apparent Declination
Unknown
Sunlit
N/A
Visualization observer readout
Local Sidereal Time
04:37:12
Azimuth
Unknown
Elevation
Unknown
Doppler factor
Unknown
Orbital elements
Apogee altitude
192.312 km
Perigee altitude
178.098 km
Semi-major axis
6,563.342 km
Eccentricity
0.00108
Inclination
97.3569°
RAAN
119.0624°
Arg. of periapsis
297.303°
True anomaly
62.82654°
Mean anomaly
62.7162°
Eccentric anomaly
62.77137°
Mean motion
4.08184 °/min
Orbital period
88.2 mins
BSTAR
0.0020739
Loading maneuver chart data...
Computing Atmospheric mass density...
Loading historical data...
Loading historical data...
Loading historical data...
Loading historical data...
Loading historical data...
Loading historical data...
Loading historical data...

Documentation

Showing up to 5 results
|